Regional Weather Roundup
Issued by NWS

Home | Current Version | Previous Version | Graphics & Text | Print | Product List | Glossary On
Versions: 1 2 3 4 5 6 7 8 9 10 11 12 13 14 15 16 17 18 19 20 21 22 23 24 25 26 27 28 29 30 31 32 33 34 35 36 37 38 39 40 41 42 43 44 45 46 47 48 49 50
000
ASUS43 KMKX 010600
RWRWI

WISCONSIN REGIONAL WEATHER ROUNDUP
NATIONAL WEATHER SERVICE MILWAUKEE/SULLIVAN WI
100 AM CDT TUE SEP 01 2015

NOTE: "FAIR" INDICATES FEW OR NO CLOUDS BELOW 12,000 FEET WITH NO
SIGNIFICANT WEATHER AND/OR OBSTRUCTIONS TO VISIBILITY.

WIZ001-002-006>008-014>016-023>028-010700-
NORTHWEST WISCONSIN

CITY           SKY/WX    TMP DP  RH WIND       PRES   REMARKS
SUPERIOR ARPT  FAIR      69  68  98 SW3       29.86S
ASHLAND        FAIR      71  71 100 S7        29.90S
6HR MIN TEMP:  71; 6HR MAX TEMP:  76;

HAYWARD        FAIR      71  69  93 S5        29.93S
6HR MIN TEMP:  71; 6HR MAX TEMP:  76;

SIREN          FAIR      71  70  95 S6        29.91S FOG
CUMBERLAND     FAIR      68  68 100 S6        29.94S FOG
RICE LAKE      FAIR      69  67  94 CALM      29.95S FOG
CHETEK         FAIR     N/A N/A N/A CALM      29.95R HAZE
LADYSMITH      FAIR      72  69  91 S5        29.98R
EAU CLAIRE     NOT AVBL
MENOMONIE      FAIR      69  69  98 CALM      29.94S FOG
NEW RICHMOND   FAIR      71  70  97 S5        29.94R FOG
OSCEOLA        FAIR      71  71 100 S3        29.95R FOG
$$

WIZ003>005-009-010-017-018-010700-
NORTH CENTRAL WISCONSIN

CITY           SKY/WX    TMP DP  RH WIND       PRES   REMARKS
MANITOWISH WTR FAIR      68  68 100 S7        29.98S
ARBOR VITAE    FAIR      72  70  93 SW10      29.99S
WOODRUFF       FAIR      72  70  93 SW10      29.99S
RHINELANDER    FAIR      69  66  90 SW8       30.01S
6HR MIN TEMP:  66; 6HR MAX TEMP:  72;

EAGLE RIVER    FAIR      67  67  98 SW5       29.99S
LAND O LAKES   FAIR      67  66  97 CALM      30.00S FOG
PHILLIPS       FAIR      69  68  97 S6        29.97S
TOMAHAWK       FAIR      66  65  96 CALM      30.00S FOG
MEDFORD        FAIR      67  66  99 S7        30.00S FOG
MERRILL          N/A     62  62 100 CALM      30.00S FOG
$$

WIZ029-030-035-036-043>047-010700-
CENTRAL WISCONSIN

CITY           SKY/WX    TMP DP  RH WIND       PRES   REMARKS
WAUSAU         FAIR      68  66  93 S5        29.99S FOG
6HR MIN TEMP:  68; 6HR MAX TEMP:  75;

MOSINEE        FAIR      64  64 100 S6        30.01S FOG
MARSHFIELD     FOG       66  63  90 S6        30.00S VSB 1
6HR MIN TEMP:  66; 6HR MAX TEMP:  71;

STEVENS POINT  FAIR      63  61  94 CALM      30.01S FOG
WAUPACA        FOG       66  65  97 CALM      30.01S VSB 1/2
WAUTOMA        FOG       64  64 100 CALM      30.01S VSB 1/2
WISC RAPIDS    FAIR      69  65  86 S5        30.01S
6HR MIN TEMP:  69; 6HR MAX TEMP:  76; 6HR PCP: TRACE;

CAMP DOUGLAS   FAIR      68  68 100 S8        29.99S
6HR MIN TEMP:  66; 6HR MAX TEMP:  78;

$$

WIZ011>013-019>022-031-037>040-048>050-010700-
NORTHEAST WISCONSIN

CITY           SKY/WX    TMP DP  RH WIND       PRES   REMARKS
ANTIGO         FAIR      67  66  97 SW8       30.02S
SHAWANO        FAIR      69  67  93 CALM      30.00R FOG
OCONTO         FAIR      64  64 100 CALM      29.99S
STURGEON BAY   FAIR      64  63  94 S9        30.02S
6HR MIN TEMP:  64; 6HR MAX TEMP:  73;

GREEN BAY      FAIR      68  66  93 S6        30.01R FOG
6HR MIN TEMP:  68; 6HR MAX TEMP:  74;

MANITOWOC      NOT AVBL
APPLETON       FAIR      66  64  94 S3        30.00S FOG
CLINTONVILLE   FOG       63  61  94 CALM      30.00S VSB 1/4
OSHKOSH        FAIR      68  66  93 S6        30.01S
6HR MIN TEMP:  66; 6HR MAX TEMP:  74;

$$

WIZ032>034-041-042-053>061-010700-
SOUTHWEST WISCONSIN

CITY           SKY/WX    TMP DP  RH WIND       PRES   REMARKS
LA CROSSE      FAIR      71  69  93 S5        29.96S
6HR MIN TEMP:  71; 6HR MAX TEMP:  81;

SPARTA         FAIR      67  65  94 CALM      29.98S
VIROQUA          N/A     71  71 100 SE6       30.00S
BOSCOBEL       MOCLDY    70  68  93 CALM      29.99R FOG
6HR MIN TEMP:  69; 6HR MAX TEMP:  82;

PRAIRIE DU CHI FAIR      73  69  88 E5        29.97S
PLATTEVILLE    FAIR      72  70  95 SE7       30.00F
$$

WIZ056-057-062-063-064-067-068-010700-
SOUTH CENTRAL WISCONSIN

CITY           SKY/WX    TMP DP  RH WIND       PRES   REMARKS
REEDSBURG      FAIR      68  67  96 CALM      29.99F
BARABOO/DELLS  FAIR      69  65  89 S7        30.00S
LONE ROCK      NOT AVBL
MINERAL POINT  FAIR      72  70  94 SE6       30.02S
MADISON        FAIR      72  67  84 S6        30.01S
6HR MIN TEMP:  69; 6HR MAX TEMP:  79;

MIDDLETON      FAIR      70  69  95 CALM      30.02S
WATERTOWN      FAIR      67  67 100 CALM      30.03R FOG
MONROE         FAIR      70  68  94 S9        30.03S
JANESVILLE     FAIR      70  68  94 SE3       30.02S FOG
$$

WIZ051-052-058>065-066-070>072-010700-
SOUTHEAST WISCONSIN

CITY           SKY/WX    TMP DP  RH WIND       PRES   REMARKS
MILWAUKEE      FAIR      69  65  86 S6        30.04S
6HR MIN TEMP:  68; 6HR MAX TEMP:  72;

WAUKESHA       FAIR      66  64  94 S5        30.05S FOG
MILWAUKEE/TIMM FAIR      68  63  83 S5        30.05R
RACINE         FAIR      69  66  90 MISG      30.06S
6HR MIN TEMP:  68; 6HR MAX TEMP:  73; 6HR PCP: TRACE;

BURLINGTON     FOG       62  61  99 CALM      30.04S VSB 3/4
KENOSHA        FAIR      67  65  93 S3        30.05R
6HR MIN TEMP:  65; 6HR MAX TEMP:  75;

FOND DU LAC    FAIR      68  66  93 S6        30.02S FOG
6HR MIN TEMP:  66; 6HR MAX TEMP:  76;

SHEBOYGAN      FAIR      62  61  96 CALM      30.03S FOG
6HR MIN TEMP:  61; 6HR MAX TEMP:  71;

WEST BEND        N/A     64  63  94 CALM      30.03S FOG
JUNEAU         FAIR      67  66  96 SE3       30.04S FOG
$$

LSZ147-162-010700-
LAKE SUPERIOR

STATION/POSITION TIME  TEMP    WIND        PRES    WAVE
                       AIR SEA DIR/SP/G            HT/PER
                 (UTC) (F)     (DEG/KT/KT) (MB)    (FT/S)
W MID LAKE BUOY  0450   62 55  210/ 14/ 16 1010.8F   1/ 3
DEVILS ISLAND    0500   74     200/ 11/ 15 1010.9F
PORT WING        0540   74     180/  9/ 12 1011.5S
SAXON HARBOR     0540   75     190/  3/ 10 1011.9R
$$

LMZ867-665-643>646-010700-
LAKE MICHIGAN

STATION/POSITION TIME  TEMP    WIND        PRES    WAVE
                       AIR SEA DIR/SP/G            HT/PER
                 (UTC) (F)     (DEG/KT/KT) (MB)    (FT/S)
CHAMBERS ISLAND  0500   69     180/  3/ 10 1015.2F
S GREEN BAY BUOY 0500   67 64  180/ 10/ 12 1017.0R
N MID LAKE BUOY  0450   65 65  210/ 14/ 16 1015.4R   3/ 4
NORTHPORT PIER   0500   63     160/  5/  7 1015.6R
KEWAUNEE LAKESHO 0500          170/  3/  4 1015.3
SHEBOYGAN LAKESH 0500   61     190/  9/  9 1016.9S
PORT WASHINGTON  0500   57      CALM  /  1 1017.3F
ATWATER BUOY     0500   57 51  170/  4/  4 1018.3S
MILWAUKEE LAKESH 0520   64     160/  4/  4   N/A
S MID LAKE BUOY  0450   71 70  150/  6/  8 1017.0R   0
KENOSHA   LAKESH 0500   70     190/  8/ 10 1016.9S
$$

TC  - TEMPERATURE IN CELSIUS
VSB - VISIBILITY IN STATUTE MILES
WCI - WIND CHILL INDEX
HX  - HEAT INDEX



USA.gov is the U.S. government's official web portal to all federal, state and local government web resources and services.